Location: Invercargill
(46.4000°S, 168.3500°E)
Time: 19:18:27
(UTC+12:00)

CENTAUR R/B - Pass Details

Date: 14 May 2021
Orbit: 742 x 1446 km, 63.4° (Epoch: 09 June)

Event Time Altitude Azimuth Distance (km) Brightness Sun altitude
Rises 17:55:51 0° 309° (NW) 4,359 7.6 -5.7°
Reaches altitude 10° 17:58:57 10° 305° (NW) 3,310 6.9 -6.2°
Maximum altitude 18:06:50 60° 225° (SW) 1,315 3.4 -7.4°
Drops below altitude 10° 18:13:31 10° 145° (SE) 2,821 4.4 -8.5°
Enters shadow 18:14:56 - 143° (SE) 3,312 4.8 -8.8°
